{"data":{"norad_id":37809,"intl_designator":"2011-049A","name":"SES-2","alt_names":[],"object_type":"PAYLOAD","status":"ACTIVE","operator":null,"country":"SES","launch_date":"2011-09-21","launch_site_code":"FRGUI","launch_vehicle":null,"mission":null,"orbit_class":"UNKNOWN","rcs_meters":9.3468,"size_class":null,"mass_kg":null,"dimensions":null,"purposes":["comms"],"wikipedia_slug":null,"has_3d_model":false,"image_url":null,"decayed_at":null,"tle_current":{"epoch":"2026-09-20T04:03:44.851104Z","epoch_age_seconds":42902,"freshness":"FRESH","line1":"1 37809U 11049A   26263.16926911 -.00000200  00000+0  00000+0 0  9997","line2":"2 37809   0.2951  87.3133 0002900  86.8497 158.8555  1.00272443 54913","mean_motion":1.00272443,"eccentricity":0.00029,"inclination_deg":0.2951,"raan_deg":87.3133,"arg_perigee_deg":86.8497,"mean_anomaly_deg":158.8555,"bstar":0,"rev_number":5491,"period_min":1436.0874801864,"perigee_km":35774.182782138,"apogee_km":35798.638219689,"semimajor_km":42164.547500913,"source":"CELESTRAK","updated_at":"2026-09-20T09:00:35.639913Z"}}}